Weather in Lovchikovo

Russia / Oryol Oblast     52°30′04″N   36°13′57″E
temp.,
°C
wind,
m/s
gust,
m/s
humid.,
%
clouds,
%
prec.,
mm/h
press.,
hPa
HPBL,
m
28 july, wed
wed2800:00+20n116496 0.0 101911
03:00+20sse3357100 0.0 101739
06:00+20s3558100 0.0 1017108
09:00+21s3655100 0.0 1016155
12:00+20wnw2467100 0.3 1016223
15:00+19s3671100 0.5 1015184
18:00+21sse487447 0.3 1012263
21:00+19s3482100 0.3 101257
29 july, thu
thu2900:00+17ssw37870 0.0 1012118
03:00+17w38925 0.0 1011138
06:00+18w369183 0.0 1010137
09:00+24w3565100 0.0 1010529
12:00+28w56465 0.1 10101809
15:00+30w673824 0.2 10092703
18:00+27w464895 0.0 1008414
21:00+23w22590 0.0 100811
30 july, fri
fri3000:00+23sse335614 0.0 100747
03:00+20s346559 0.0 100772
06:00+19wsw378512 0.7 1007174
09:00+22wnw347976 1.3 1007446
12:00+26w4556100 0.0 10071407
15:00+26wnw565599 0.1 10071496
18:00+25wnw5859100 0.0 1007645
21:00+21nw236680 0.0 100852
31 july, sat
sat3100:00+18wnw347610 0.0 100954
03:00+17wsw228099 0.0 100920
06:00+17wsw35775 0.0 1010103
09:00+24w47510 0.0 1010656
12:00+28wsw683839 0.0 10102137
15:00+29w673451 0.0 10092475
18:00+28w47378 0.0 10092306
21:00+22nw005898 0.0 101011
1 august, sun
sun100:00+21sse336047 0.0 101026
03:00+20s49603 0.0 1010146
06:00+19s411634 0.0 1009208
09:00+26ssw710465 0.0 1008546
12:00+29sw81238100 0.0 10081877
15:00+28wsw6943100 0.0 10091643
18:00+28w564537 0.0 10081898
21:00+23nnw48663 0.0 1010242